Location: Chapel Hill
(35.9134°N, 79.0560°W)
Time: 19:00:49
(UTC-04:00)

Transit 4A - All Passes

Search period start: 01 November 2024 00:00
Search period end: 10 November 2024 23:00
Orbit: 863 x 979 km, 66.8° (Epoch: 01 November)

Date Brightness Start Highest point End Pass type
(mag) Time Alt. Az. Time Alt. Az. Time Alt. Az.
01 Nov - 00:49:05 10° N 00:52:37 15° NE 00:56:10 10° ENE night (unlit)
01 Nov - 02:33:30 10° NNW 02:39:55 82° ENE 02:46:19 10° SSE night (unlit)
01 Nov - 04:22:25 10° WNW 04:25:27 14° WSW 04:28:29 10° SW night (unlit)
01 Nov - 15:52:22 10° SSE 15:57:09 26° ESE 16:02:03 10° NE daylight
01 Nov - 17:37:32 10° SW 17:43:09 43° WNW 17:48:59 10° NNE daylight
02 Nov - 00:57:13 10° N 01:01:58 21° NE 01:06:41 10° E night (unlit)
02 Nov - 02:42:29 10° NNW 02:48:50 68° WSW 02:55:10 10° SSE night (unlit)
02 Nov - 16:00:25 10° S 16:05:52 41° ESE 16:11:31 10° NE daylight
02 Nov - 17:47:08 10° WSW 17:52:16 30° NW 17:57:36 10° N daylight
03 Nov - 01:05:40 10° N 01:11:11 30° NE 01:16:43 10° ESE night (unlit)
03 Nov - 01:51:39 10° NW 01:57:41 45° WSW 02:03:41 10° S night (unlit)
03 Nov - 15:08:52 10° SSW 15:14:41 63° ESE 15:20:42 10° NNE daylight
03 Nov - 16:57:06 10° W 17:01:30 21° NW 17:06:02 10° N daylight
04 Nov - 00:14:16 10° NNW 00:20:20 43° ENE 00:26:21 10° SE night (unlit)
04 Nov - 02:01:01 10° NW 02:06:27 30° WSW 02:11:51 10° SSW night (unlit)
04 Nov - 13:36:23 10° ESE 13:38:11 11° E 13:40:00 10° E daylight
04 Nov - 15:17:38 10° SSW 15:23:34 86° WNW 15:29:43 10° NNE daylight
04 Nov - 17:07:34 10° WNW 17:10:50 15° NW 17:14:09 10° N daylight
04 Nov - 22:39:37 10° NNE 22:41:45 12° NE 22:43:53 10° ENE night (unlit)
05 Nov - 00:23:02 10° NNW 00:29:23 63° ENE 00:35:41 10° SE night (unlit)
05 Nov - 02:10:47 10° WNW 02:15:08 19° WSW 02:19:29 10° SSW night (unlit)
05 Nov - 13:42:47 10° SSE 13:46:47 19° ESE 13:50:53 10° ENE daylight
05 Nov - 15:26:42 10° SW 15:32:32 58° WNW 15:38:35 10° NNE daylight
05 Nov - 17:19:45 10° NW 17:20:16 10° NW 17:20:47 10° NW daylight
05 Nov - 22:47:13 10° N 22:51:09 17° NE 22:55:06 10° E night (unlit)
06 Nov - 00:31:55 10° NNW 00:38:20 89° WSW 00:44:44 10° SSE night (unlit)
06 Nov - 02:21:34 10° W 02:23:46 12° W 02:25:58 10° WSW night (unlit)
06 Nov - 13:50:26 10° SSE 13:55:28 30° ESE 14:00:39 10° NE daylight
06 Nov - 15:36:04 10° SW 15:41:35 39° NW 15:47:18 10° NNE daylight
06 Nov - 22:55:27 10° N 23:00:27 23° NE 23:05:27 10° ESE night (unlit)
07 Nov - 00:40:56 10° NW 00:47:13 61° WSW 00:53:29 10° S night (unlit)
07 Nov - 13:58:36 10° S 14:04:12 46° ESE 14:10:01 10° NE daylight
07 Nov - 15:45:44 10° WSW 15:50:44 27° NW 15:55:53 10° N daylight
07 Nov - 23:03:56 10° N 23:09:39 33° NE 23:15:20 10° ESE night (unlit)
08 Nov - 00:50:08 10° NW 00:56:02 40° WSW 01:01:54 10° S night (unlit)
08 Nov - 14:07:09 10° SSW 14:13:02 71° ESE 14:19:08 10° NNE daylight
08 Nov - 15:55:49 10° W 15:59:59 19° NW 16:04:15 10° N daylight
08 Nov - 23:12:36 10° NNW 23:18:45 48° ENE 23:24:53 10° SE night (unlit)
09 Nov - 00:59:35 10° NW 01:04:46 27° WSW 01:09:56 10° SSW night (unlit)
09 Nov - 12:33:44 10° SE 12:36:27 13° ESE 12:39:13 10° ENE daylight
09 Nov - 14:15:59 10° SSW 14:21:55 77° WNW 14:28:06 10° NNE daylight
09 Nov - 16:06:29 10° WNW 16:09:19 13° NW 16:12:13 10° NNW daylight
09 Nov - 21:37:29 10° NNE 21:40:16 13° NE 21:43:04 10° ENE night (unlit)
09 Nov - 23:21:23 10° NNW 23:27:47 70° ENE 23:34:08 10° SE night (unlit)
10 Nov - 01:09:31 10° WNW 01:13:26 17° WSW 01:17:21 10° SW night (unlit)
10 Nov - 12:40:41 10° SSE 12:45:05 22° ESE 12:49:34 10° ENE daylight
10 Nov - 14:25:08 10° SW 14:30:55 51° WNW 14:36:55 10° NNE daylight
10 Nov - 21:45:21 10° N 21:49:39 18° NE 21:53:55 10° E night (unlit)
